contact:dominique.lefevre@mio.osupytheas.fr, maurice.libes@osupytheas.fr, didier.mallarino@osupytheas.fr
Project:EMSO http://www.emso-fr.org/EMSO-France
Depth: 2436.0 m
Title:EMSO Ligure Ouest : Data MII capteur AQUADOPP
Date,Latitude,Longitude,X_East,Y_North,Z_Up,Amplitude_X,Amplitude_Y,Amplitude_Z,Batterie,SoundSpeed,Heading,Pitch,Roll,Pressure,TIS,Speed,Direction
, degrees North, degrees East, m.s-1, m.s-1,m.s-1, 1, 1, 1, Volt, m.s-1, degree, degree, degree, dbar, degree_C, m.s-1, degree
2019-06-08T00:09:05,42.805,6.029,0.042,-0.018,0.006,99.0,101.0,97.0,13.4,1505.2,326.4,-0.8,1.9,2470.334,13.29,0.045,113.2
2019-06-08T00:12:06,42.805,6.029,0.056,-0.017,-0.006,99.0,102.0,97.0,13.3,1505.2,327.4,-0.8,1.8,2470.331,13.3,0.058,106.9
2019-06-08T00:15:07,42.805,6.029,0.069,-0.032,0.027,98.0,101.0,97.0,13.4,1505.3,324.2,-0.7,1.8,2470.257,13.31,0.076,114.9
2019-06-08T00:18:08,42.805,6.029,0.038,-0.031,-0.029,98.0,103.0,96.0,13.4,1505.3,325.7,-0.7,1.8,2470.29,13.31,0.049,129.2
2019-06-08T00:21:09,42.805,6.029,0.054,-0.011,-0.015,100.0,100.0,97.0,13.4,1505.3,328.3,-0.7,1.8,2470.265,13.32,0.055,101.5
2019-06-08T00:24:10,42.805,6.029,0.07,-0.017,0.027,98.0,102.0,97.0,13.4,1505.3,326.0,-0.7,1.9,2470.254,13.32,0.072,103.7
2019-06-08T00:27:11,42.805,6.029,0.066,-0.027,-0.006,100.0,103.0,96.0,13.4,1505.3,327.4,-0.7,1.9,2470.266,13.32,0.071,112.2
2019-06-08T00:30:12,42.805,6.029,0.053,0.0,0.0,99.0,102.0,96.0,13.4,1505.3,323.4,-0.7,1.9,2470.313,13.32,0.053,90.0
2019-06-08T00:33:13,42.805,6.029,0.048,-0.021,-0.017,100.0,104.0,97.0,13.4,1505.3,327.0,-0.7,1.8,2470.243,13.32,0.052,113.6
2019-06-08T00:36:14,42.805,6.029,0.049,0.001,0.002,99.0,101.0,97.0,13.4,1505.3,327.3,-0.8,1.8,2470.265,13.32,0.049,88.8
2019-06-08T00:39:15,42.805,6.029,0.044,-0.001,-0.002,100.0,100.0,97.0,13.4,1505.3,323.5,-0.7,1.9,2470.234,13.32,0.044,91.3
2019-06-08T00:42:16,42.805,6.029,0.045,-0.018,-0.026,98.0,102.0,98.0,13.4,1505.3,326.3,-0.8,1.9,2470.291,13.32,0.048,111.8
2019-06-08T00:45:17,42.805,6.029,0.057,-0.019,-0.025,99.0,101.0,96.0,13.3,1505.3,327.2,-0.7,1.8,2470.264,13.32,0.06,108.4
2019-06-08T00:48:18,42.805,6.029,0.072,-0.02,-0.045,98.0,103.0,96.0,13.3,1505.3,326.4,-0.7,1.9,2470.245,13.32,0.074,105.5
2019-06-08T00:51:19,42.805,6.029,0.041,-0.017,-0.029,99.0,103.0,97.0,13.4,1505.3,323.7,-0.7,1.8,2470.242,13.32,0.044,112.5
2019-06-08T00:54:20,42.805,6.029,0.059,-0.006,0.023,100.0,101.0,97.0,13.4,1505.3,326.0,-0.7,1.9,2470.247,13.32,0.059,95.8
2019-06-08T00:57:21,42.805,6.029,0.052,-0.002,-0.004,98.0,102.0,96.0,13.4,1505.3,326.0,-0.8,1.9,2470.163,13.32,0.052,92.2
2019-06-08T01:00:22,42.805,6.029,0.058,-0.013,-0.012,100.0,102.0,96.0,13.3,1505.3,327.4,-0.7,1.8,2470.164,13.32,0.059,102.6
2019-06-08T01:03:23,42.805,6.029,0.054,-0.029,-0.06,99.0,102.0,97.0,13.4,1505.3,325.2,-0.8,1.8,2470.243,13.32,0.061,118.2
2019-06-08T01:06:24,42.805,6.029,0.049,-0.025,-0.012,98.0,101.0,96.0,13.4,1505.3,326.9,-0.8,1.9,2470.198,13.32,0.055,117.0
2019-06-08T01:09:25,42.805,6.029,0.038,0.011,0.0,99.0,101.0,97.0,13.4,1505.3,323.6,-0.7,1.8,2470.233,13.32,0.039,73.9
2019-06-08T01:12:26,42.805,6.029,0.042,-0.012,-0.018,98.0,102.0,97.0,13.4,1505.3,326.6,-0.7,1.9,2470.248,13.32,0.043,105.9
2019-06-08T01:15:27,42.805,6.029,0.054,-0.002,-0.018,100.0,102.0,96.0,13.4,1505.3,324.7,-0.7,1.9,2470.191,13.32,0.054,92.1
2019-06-08T01:18:28,42.805,6.029,0.053,-0.013,-0.021,100.0,102.0,97.0,13.4,1505.3,326.8,-0.7,1.9,2470.211,13.32,0.054,103.8
2019-06-08T01:21:29,42.805,6.029,0.042,-0.015,-0.033,100.0,101.0,96.0,13.3,1505.3,326.1,-0.7,1.8,2470.202,13.32,0.044,109.6
2019-06-08T01:24:30,42.805,6.029,0.025,-0.006,-0.001,99.0,102.0,96.0,13.3,1505.3,326.4,-0.8,1.8,2470.19,13.32,0.025,103.5
2019-06-08T01:27:31,42.805,6.029,0.038,-0.018,-0.013,99.0,102.0,97.0,13.4,1505.3,325.9,-0.7,1.9,2470.222,13.32,0.042,115.3
2019-06-08T01:30:32,42.805,6.029,0.055,0.0,-0.025,98.0,102.0,96.0,13.4,1505.3,324.9,-0.8,1.9,2470.202,13.32,0.055,90.0
2019-06-08T01:33:33,42.805,6.029,0.046,-0.003,-0.005,98.0,104.0,97.0,13.4,1505.3,326.7,-0.8,1.9,2470.224,13.32,0.046,93.7
2019-06-08T01:36:34,42.805,6.029,0.07,0.004,0.012,99.0,100.0,98.0,13.4,1505.3,327.3,-0.7,1.8,2470.178,13.32,0.07,86.7
2019-06-08T01:39:35,42.805,6.029,0.066,-0.013,-0.003,99.0,102.0,96.0,13.4,1505.3,327.2,-0.8,1.8,2470.208,13.32,0.067,101.1
2019-06-08T01:42:36,42.805,6.029,0.042,-0.016,-0.056,99.0,102.0,97.0,13.4,1505.3,326.9,-0.8,1.8,2470.174,13.32,0.044,110.9
2019-06-08T01:45:37,42.805,6.029,0.06,-0.002,-0.022,101.0,101.0,96.0,13.3,1505.3,325.2,-0.8,1.9,2470.207,13.32,0.06,91.9
2019-06-08T01:48:38,42.805,6.029,0.046,0.005,-0.024,100.0,100.0,96.0,13.3,1505.3,323.9,-0.8,1.8,2470.164,13.32,0.046,83.8
2019-06-08T01:51:39,42.805,6.029,0.058,0.019,-0.005,100.0,102.0,97.0,13.4,1505.3,323.0,-0.8,1.8,2470.216,13.32,0.061,71.9
2019-06-08T01:54:40,42.805,6.029,0.033,-0.01,-0.039,99.0,103.0,97.0,13.3,1505.3,323.4,-0.8,1.8,2470.173,13.32,0.034,106.9
2019-06-08T01:57:41,42.805,6.029,0.059,0.009,-0.02,100.0,101.0,97.0,13.4,1505.3,325.3,-0.7,1.9,2470.17,13.32,0.059,81.3
2019-06-08T02:00:42,42.805,6.029,0.066,0.001,-0.01,101.0,102.0,96.0,13.4,1505.3,327.0,-0.7,1.9,2470.193,13.32,0.066,89.1
2019-06-08T02:03:43,42.805,6.029,0.088,0.009,0.019,100.0,102.0,98.0,13.4,1505.3,323.0,-0.7,1.8,2470.187,13.32,0.088,84.2
2019-06-08T02:06:44,42.805,6.029,0.063,0.0,0.002,98.0,103.0,95.0,13.4,1505.3,327.0,-0.7,1.9,2470.208,13.32,0.062,90.0
2019-06-08T02:09:45,42.805,6.029,0.058,-0.007,-0.021,99.0,103.0,97.0,13.4,1505.3,324.6,-0.7,1.9,2470.173,13.32,0.058,96.9
2019-06-08T02:12:46,42.805,6.029,0.026,-0.009,-0.014,101.0,103.0,95.0,13.4,1505.3,327.4,-0.7,1.8,2470.183,13.32,0.027,109.1
2019-06-08T02:15:47,42.805,6.029,0.05,0.003,-0.029,99.0,101.0,97.0,13.4,1505.3,327.6,-0.7,1.8,2470.167,13.32,0.05,86.6
2019-06-08T02:18:48,42.805,6.029,0.039,-0.018,-0.003,100.0,102.0,97.0,13.3,1505.3,325.0,-0.7,1.9,2470.164,13.32,0.042,114.8
2019-06-08T02:21:49,42.805,6.029,0.056,0.007,-0.016,99.0,103.0,97.0,13.3,1505.3,325.0,-0.8,1.9,2470.178,13.32,0.056,82.9
2019-06-08T02:24:50,42.805,6.029,0.036,-0.012,-0.045,100.0,101.0,97.0,13.4,1505.3,323.7,-0.8,1.8,2470.173,13.32,0.037,108.4
2019-06-08T02:27:51,42.805,6.029,0.055,0.0,-0.011,98.0,102.0,97.0,13.4,1505.3,324.5,-0.7,1.8,2470.174,13.32,0.055,90.0
2019-06-08T02:30:52,42.805,6.029,0.077,-0.016,-0.036,99.0,103.0,96.0,13.3,1505.3,323.5,-0.7,1.8,2470.217,13.32,0.078,101.7
2019-06-08T02:33:53,42.805,6.029,0.047,0.005,-0.028,99.0,101.0,96.0,13.4,1505.3,324.0,-0.7,1.8,2470.155,13.32,0.047,83.9
2019-06-08T02:36:54,42.805,6.029,0.058,-0.002,-0.023,99.0,103.0,97.0,13.4,1505.3,323.2,-0.8,1.8,2470.167,13.32,0.058,92.0
2019-06-08T02:39:55,42.805,6.029,0.053,0.01,-0.007,100.0,104.0,97.0,13.4,1505.3,328.3,-0.7,1.9,2470.161,13.32,0.053,79.3
2019-06-08T02:42:56,42.805,6.029,0.062,-0.023,-0.029,100.0,103.0,95.0,13.4,1505.3,325.2,-0.7,1.8,2470.222,13.32,0.066,110.3
2019-06-08T02:45:57,42.805,6.029,0.054,0.001,-0.037,100.0,103.0,97.0,13.4,1505.3,324.2,-0.7,1.9,2470.134,13.32,0.054,88.9
2019-06-08T02:48:58,42.805,6.029,0.065,-0.013,-0.039,99.0,102.0,96.0,13.4,1505.3,327.3,-0.7,1.9,2470.164,13.32,0.066,101.3
2019-06-08T02:51:59,42.805,6.029,0.037,-0.007,0.003,99.0,103.0,96.0,13.4,1505.3,323.6,-0.8,1.8,2470.155,13.32,0.037,100.7
2019-06-08T02:55:00,42.805,6.029,0.051,0.0,-0.003,97.0,102.0,98.0,13.4,1505.3,324.5,-0.8,1.9,2470.146,13.32,0.051,90.0
2019-06-08T02:58:01,42.805,6.029,0.058,-0.006,-0.01,98.0,101.0,96.0,13.3,1505.3,322.7,-0.8,1.8,2470.149,13.32,0.058,95.9
2019-06-08T03:01:02,42.805,6.029,0.063,-0.001,0.011,99.0,105.0,97.0,13.3,1505.3,324.0,-0.8,1.8,2470.155,13.32,0.063,90.9
2019-06-08T03:04:03,42.805,6.029,0.052,0.011,-0.025,97.0,104.0,96.0,13.4,1505.3,326.4,-0.7,1.8,2470.192,13.32,0.053,78.1
2019-06-08T03:07:04,42.805,6.029,0.033,0.0,-0.019,98.0,102.0,96.0,13.3,1505.3,328.0,-0.8,1.8,2470.146,13.32,0.033,90.0
2019-06-08T03:10:05,42.805,6.029,0.042,-0.001,-0.009,100.0,102.0,97.0,13.3,1505.3,323.3,-0.8,1.9,2470.134,13.32,0.042,91.4
2019-06-08T03:13:06,42.805,6.029,0.047,-0.006,-0.007,99.0,103.0,97.0,13.4,1505.3,325.2,-0.7,1.9,2470.162,13.32,0.047,97.3
2019-06-08T03:16:07,42.805,6.029,0.046,0.017,-0.044,100.0,102.0,98.0,13.4,1505.3,324.8,-0.7,1.8,2470.145,13.32,0.049,69.7
2019-06-08T03:19:08,42.805,6.029,0.074,-0.007,-0.015,99.0,103.0,96.0,13.4,1505.3,325.2,-0.7,1.8,2470.092,13.32,0.074,95.4
2019-06-08T03:22:09,42.805,6.029,0.066,-0.007,-0.035,99.0,102.0,97.0,13.4,1505.3,325.0,-0.8,1.9,2470.129,13.32,0.066,96.1
2019-06-08T03:25:10,42.805,6.029,0.06,-0.009,-0.007,100.0,102.0,98.0,13.4,1505.3,326.3,-0.7,1.9,2470.09,13.32,0.06,98.5
2019-06-08T03:28:11,42.805,6.029,0.044,0.0,-0.035,99.0,102.0,96.0,13.4,1505.3,326.0,-0.7,1.8,2470.073,13.32,0.044,90.0
2019-06-08T03:31:12,42.805,6.029,0.031,-0.012,-0.04,98.0,104.0,96.0,13.4,1505.3,325.9,-0.7,1.9,2470.154,13.32,0.033,111.2
2019-06-08T03:34:13,42.805,6.029,0.058,0.006,-0.018,100.0,102.0,96.0,13.3,1505.3,325.5,-0.8,1.8,2470.098,13.32,0.058,84.1
2019-06-08T03:37:14,42.805,6.029,0.08,0.0,-0.005,99.0,101.0,96.0,13.4,1505.3,325.9,-0.7,1.8,2470.075,13.32,0.079,90.0
2019-06-08T03:40:15,42.805,6.029,0.032,-0.003,-0.02,98.0,102.0,96.0,13.4,1505.3,325.4,-0.7,1.9,2470.091,13.32,0.032,95.4
2019-06-08T03:43:16,42.805,6.029,0.065,-0.005,-0.023,100.0,102.0,97.0,13.4,1505.3,327.0,-0.7,1.8,2470.08,13.32,0.065,94.4
2019-06-08T03:46:17,42.805,6.029,0.062,-0.003,-0.032,100.0,103.0,96.0,13.4,1505.3,325.2,-0.7,1.8,2470.109,13.32,0.062,92.8
2019-06-08T03:49:18,42.805,6.029,0.057,-0.026,-0.011,99.0,102.0,97.0,13.3,1505.3,324.7,-0.8,1.8,2470.123,13.32,0.062,114.5
2019-06-08T03:52:19,42.805,6.029,0.034,-0.002,0.018,100.0,101.0,96.0,13.3,1505.3,324.2,-0.8,1.9,2470.135,13.32,0.034,93.4
2019-06-08T03:55:20,42.805,6.029,0.032,-0.017,-0.017,101.0,103.0,96.0,13.3,1505.3,324.8,-0.8,1.8,2470.076,13.32,0.036,118.0
2019-06-08T03:58:21,42.805,6.029,0.047,-0.02,0.004,98.0,103.0,96.0,13.4,1505.3,327.3,-0.7,1.8,2470.123,13.32,0.051,113.0
2019-06-08T04:01:22,42.805,6.029,0.043,-0.017,-0.061,99.0,102.0,96.0,13.4,1505.3,327.5,-0.8,1.8,2470.073,13.32,0.046,111.6
2019-06-08T04:04:23,42.805,6.029,0.034,-0.011,-0.022,98.0,103.0,97.0,13.4,1505.3,323.3,-0.7,1.9,2470.061,13.32,0.035,107.9
2019-06-08T04:07:24,42.805,6.029,0.058,-0.007,-0.016,97.0,103.0,97.0,13.3,1505.3,324.3,-0.8,1.9,2470.103,13.32,0.058,96.9
2019-06-08T04:10:25,42.805,6.029,0.041,-0.013,-0.027,98.0,102.0,97.0,13.4,1505.3,326.4,-0.7,1.9,2470.14,13.32,0.043,107.6
2019-06-08T04:13:26,42.805,6.029,0.061,-0.006,0.0,100.0,102.0,97.0,13.3,1505.3,324.4,-0.8,1.8,2470.092,13.32,0.061,95.6
2019-06-08T04:16:27,42.805,6.029,0.06,-0.03,-0.016,100.0,103.0,96.0,13.4,1505.3,323.8,-0.8,1.9,2470.098,13.32,0.067,116.6
2019-06-08T04:19:28,42.805,6.029,0.059,-0.043,-0.009,99.0,101.0,97.0,13.3,1505.3,324.3,-0.7,1.8,2470.106,13.32,0.073,126.1
2019-06-08T04:22:29,42.805,6.029,0.049,-0.016,-0.007,98.0,102.0,97.0,13.4,1505.3,325.5,-0.7,1.8,2470.076,13.32,0.051,108.1
2019-06-08T04:25:30,42.805,6.029,0.043,-0.022,-0.053,99.0,102.0,97.0,13.4,1505.3,325.2,-0.7,1.8,2470.093,13.32,0.048,117.1
2019-06-08T04:28:31,42.805,6.029,0.059,-0.013,0.002,99.0,102.0,96.0,13.3,1505.3,326.1,-0.7,1.8,2470.036,13.32,0.06,102.4
2019-06-08T04:31:32,42.805,6.029,0.042,0.005,-0.027,98.0,102.0,96.0,13.3,1505.3,324.9,-0.7,1.9,2470.081,13.32,0.042,83.2
2019-06-08T04:34:33,42.805,6.029,0.053,-0.023,-0.035,97.0,103.0,97.0,13.4,1505.3,328.1,-0.7,1.9,2470.061,13.32,0.057,113.5
2019-06-08T04:37:34,42.805,6.029,0.062,-0.006,-0.028,99.0,101.0,96.0,13.4,1505.3,326.9,-0.7,1.9,2470.058,13.32,0.062,95.5
2019-06-08T04:40:35,42.805,6.029,0.064,-0.02,-0.002,97.0,102.0,97.0,13.4,1505.3,324.5,-0.8,1.9,2470.116,13.32,0.067,107.4
2019-06-08T04:43:36,42.805,6.029,0.053,-0.021,-0.014,100.0,102.0,95.0,13.3,1505.3,326.5,-0.7,1.9,2470.055,13.32,0.057,111.6
2019-06-08T04:46:37,42.805,6.029,0.057,-0.02,-0.012,98.0,102.0,96.0,13.4,1505.3,326.7,-0.7,1.8,2470.081,13.32,0.06,109.3
2019-06-08T04:49:38,42.805,6.029,0.036,-0.013,-0.022,98.0,101.0,95.0,13.3,1505.3,325.6,-0.7,1.8,2470.084,13.32,0.038,109.9
2019-06-08T04:52:39,42.805,6.029,0.059,-0.009,0.0,98.0,101.0,96.0,13.3,1505.3,324.9,-0.7,1.8,2470.074,13.32,0.059,98.7
2019-06-08T04:55:40,42.805,6.029,0.059,-0.015,0.003,99.0,102.0,96.0,13.3,1505.3,327.8,-0.7,1.8,2470.079,13.32,0.06,104.3
2019-06-08T04:58:41,42.805,6.029,0.062,-0.029,-0.026,99.0,101.0,96.0,13.3,1505.3,323.3,-0.7,1.8,2470.07,13.32,0.068,115.1
2019-06-08T05:01:42,42.805,6.029,0.067,-0.009,0.008,99.0,101.0,96.0,13.4,1505.3,323.8,-0.7,1.8,2470.081,13.32,0.067,97.7
2019-06-08T05:04:43,42.805,6.029,0.056,-0.015,-0.016,99.0,102.0,97.0,13.3,1505.3,326.6,-0.7,1.8,2470.068,13.32,0.057,105.0
2019-06-08T05:07:44,42.805,6.029,0.059,-0.011,0.002,99.0,104.0,95.0,13.4,1505.3,327.4,-0.8,1.9,2470.073,13.32,0.06,100.6
2019-06-08T05:10:45,42.805,6.029,0.018,-0.006,-0.025,100.0,103.0,97.0,13.4,1505.3,324.7,-0.7,1.8,2470.069,13.32,0.018,108.4
2019-06-08T05:13:46,42.805,6.029,0.044,-0.006,0.0,98.0,102.0,96.0,13.4,1505.3,324.8,-0.7,1.8,2470.069,13.32,0.044,97.8
2019-06-08T05:16:47,42.805,6.029,0.056,-0.011,-0.033,97.0,102.0,97.0,13.4,1505.3,327.5,-0.7,1.9,2470.059,13.32,0.057,101.1
2019-06-08T05:19:48,42.805,6.029,0.053,-0.016,0.004,99.0,102.0,96.0,13.4,1505.3,325.5,-0.8,1.9,2470.058,13.32,0.055,106.8
2019-06-08T05:22:49,42.805,6.029,0.076,-0.037,0.005,99.0,101.0,96.0,13.3,1505.3,326.0,-0.8,1.9,2470.065,13.32,0.084,116.0
2019-06-08T05:25:50,42.805,6.029,0.036,-0.024,-0.018,99.0,102.0,96.0,13.4,1505.3,324.4,-0.7,1.9,2470.073,13.32,0.043,123.7
2019-06-08T05:28:51,42.805,6.029,0.051,-0.017,0.001,99.0,101.0,96.0,13.3,1505.3,327.4,-0.8,1.8,2470.047,13.32,0.053,108.4
2019-06-08T05:31:52,42.805,6.029,0.056,-0.002,0.001,98.0,101.0,97.0,13.4,1505.3,325.7,-0.7,1.8,2470.069,13.32,0.056,92.0
2019-06-08T05:34:53,42.805,6.029,0.052,-0.012,-0.01,99.0,103.0,96.0,13.4,1505.3,323.6,-0.8,1.8,2470.098,13.32,0.053,103.0
2019-06-08T05:37:54,42.805,6.029,0.048,-0.015,-0.034,100.0,102.0,97.0,13.4,1505.3,325.5,-0.8,1.8,2470.037,13.32,0.05,107.4
2019-06-08T05:40:55,42.805,6.029,0.051,-0.019,-0.022,100.0,101.0,97.0,13.4,1505.3,324.2,-0.7,1.8,2470.047,13.32,0.054,110.4
2019-06-08T05:43:56,42.805,6.029,0.043,-0.017,-0.027,101.0,100.0,97.0,13.3,1505.3,323.4,-0.7,1.9,2470.057,13.32,0.046,111.6
2019-06-08T05:46:57,42.805,6.029,0.052,-0.013,-0.046,98.0,101.0,96.0,13.4,1505.3,324.5,-0.7,1.9,2470.094,13.32,0.053,104.0
2019-06-08T05:49:58,42.805,6.029,0.064,-0.049,-0.021,98.0,101.0,97.0,13.4,1505.3,326.7,-0.7,1.8,2470.122,13.32,0.08,127.4
2019-06-08T05:52:59,42.805,6.029,0.062,-0.023,-0.052,98.0,101.0,97.0,13.4,1505.3,325.5,-0.7,1.8,2470.086,13.32,0.066,110.3
2019-06-08T05:56:00,42.805,6.029,0.064,0.012,-0.027,100.0,102.0,97.0,13.3,1505.3,324.8,-0.7,1.8,2470.125,13.32,0.065,79.4
2019-06-08T05:59:01,42.805,6.029,0.057,-0.004,-0.029,99.0,103.0,98.0,13.3,1505.3,326.3,-0.7,1.9,2470.011,13.32,0.057,94.0
2019-06-08T06:02:02,42.805,6.029,0.047,-0.017,-0.023,101.0,101.0,97.0,13.4,1505.3,325.5,-0.8,1.9,2470.057,13.32,0.049,109.9
2019-06-08T06:05:03,42.805,6.029,0.046,0.0,0.001,100.0,103.0,97.0,13.4,1505.3,325.5,-0.7,1.9,2470.058,13.32,0.046,90.0
2019-06-08T06:08:04,42.805,6.029,0.066,-0.01,-0.016,101.0,102.0,96.0,13.4,1505.3,328.1,-0.8,1.8,2470.093,13.32,0.066,98.6
2019-06-08T06:11:05,42.805,6.029,0.036,-0.004,-0.008,99.0,104.0,96.0,13.3,1505.3,327.1,-0.7,1.9,2470.037,13.32,0.036,96.3
2019-06-08T06:14:06,42.805,6.029,0.061,-0.023,-0.033,99.0,102.0,96.0,13.4,1505.3,324.8,-0.8,1.9,2470.054,13.32,0.065,110.7
2019-06-08T06:17:07,42.805,6.029,0.071,0.0,-0.005,99.0,102.0,96.0,13.4,1505.3,327.8,-0.8,1.8,2470.102,13.32,0.07,90.0
2019-06-08T06:20:08,42.805,6.029,0.046,-0.009,-0.004,99.0,101.0,97.0,13.3,1505.3,324.5,-0.7,1.8,2470.057,13.32,0.046,101.1
2019-06-08T06:23:09,42.805,6.029,0.04,-0.015,-0.006,100.0,102.0,97.0,13.4,1505.3,324.7,-0.8,1.9,2470.026,13.32,0.042,110.6
2019-06-08T06:26:10,42.805,6.029,0.046,-0.003,-0.022,98.0,102.0,97.0,13.4,1505.3,326.6,-0.7,1.8,2470.064,13.32,0.046,93.7
2019-06-08T06:29:11,42.805,6.029,0.068,-0.042,-0.033,98.0,102.0,97.0,13.3,1505.3,327.3,-0.7,1.9,2470.011,13.32,0.079,121.7
2019-06-08T06:32:12,42.805,6.029,0.039,-0.012,-0.043,98.0,102.0,97.0,13.4,1505.3,323.5,-0.7,1.8,2470.082,13.32,0.04,107.1
2019-06-08T06:35:13,42.805,6.029,0.064,-0.011,-0.021,100.0,103.0,95.0,13.3,1505.3,323.6,-0.7,1.9,2470.085,13.32,0.064,99.8
2019-06-08T06:38:14,42.805,6.029,0.084,-0.004,0.039,99.0,101.0,96.0,13.4,1505.3,326.3,-0.7,1.8,2470.032,13.32,0.084,92.7
2019-06-08T06:41:15,42.805,6.029,0.033,0.009,-0.032,100.0,102.0,97.0,13.4,1505.3,324.6,-0.7,1.9,2470.042,13.32,0.034,74.7
2019-06-08T06:44:16,42.805,6.029,0.064,-0.003,-0.016,100.0,102.0,96.0,13.4,1505.3,326.0,-0.7,1.8,2470.043,13.32,0.064,92.7
2019-06-08T06:47:17,42.805,6.029,0.041,-0.017,-0.016,101.0,102.0,96.0,13.4,1505.3,324.2,-0.7,1.9,2470.021,13.32,0.044,112.5
2019-06-08T06:50:18,42.805,6.029,0.028,0.012,-0.007,100.0,103.0,98.0,13.4,1505.3,324.7,-0.7,1.8,2470.07,13.32,0.03,66.8
2019-06-08T06:53:19,42.805,6.029,0.04,-0.015,-0.028,98.0,102.0,97.0,13.3,1505.3,326.6,-0.7,1.9,2470.069,13.32,0.042,110.6
2019-06-08T06:56:20,42.805,6.029,0.058,-0.029,-0.027,98.0,102.0,96.0,13.3,1505.3,328.4,-0.7,1.8,2470.05,13.32,0.064,116.6
2019-06-08T06:59:21,42.805,6.029,0.064,-0.025,0.002,99.0,102.0,97.0,13.3,1505.3,324.5,-0.8,1.8,2470.102,13.32,0.068,111.3
2019-06-08T07:02:22,42.805,6.029,0.06,-0.015,-0.002,98.0,102.0,96.0,13.3,1505.3,324.7,-0.7,1.8,2470.055,13.32,0.061,104.0
2019-06-08T07:05:23,42.805,6.029,0.053,-0.028,0.007,99.0,101.0,98.0,13.4,1505.3,325.7,-0.8,1.9,2470.062,13.32,0.059,117.9
2019-06-08T07:08:24,42.805,6.029,0.032,-0.027,-0.031,99.0,101.0,97.0,13.4,1505.3,326.6,-0.7,1.8,2470.035,13.32,0.041,130.2
2019-06-08T07:11:25,42.805,6.029,0.063,-0.017,-0.029,100.0,101.0,96.0,13.4,1505.3,324.0,-0.7,1.8,2470.058,13.32,0.065,105.1
2019-06-08T07:14:26,42.805,6.029,0.037,-0.029,-0.019,98.0,101.0,96.0,13.4,1505.3,326.7,-0.8,1.9,2470.083,13.32,0.047,128.1
2019-06-08T07:17:27,42.805,6.029,0.065,-0.016,0.016,98.0,102.0,97.0,13.4,1505.3,326.5,-0.7,1.9,2470.057,13.32,0.066,103.8
2019-06-08T07:20:28,42.805,6.029,0.04,-0.028,0.0,97.0,102.0,96.0,13.4,1505.3,325.3,-0.7,1.9,2470.09,13.32,0.048,125.0
2019-06-08T07:23:29,42.805,6.029,0.056,-0.021,-0.015,99.0,101.0,96.0,13.4,1505.3,323.9,-0.8,1.8,2470.067,13.32,0.059,110.6
2019-06-08T07:26:30,42.805,6.029,0.027,-0.002,0.003,98.0,102.0,96.0,13.4,1505.3,325.9,-0.8,1.8,2470.051,13.32,0.027,94.2
2019-06-08T07:29:31,42.805,6.029,0.053,-0.015,0.001,98.0,102.0,96.0,13.4,1505.3,324.3,-0.8,1.8,2470.059,13.32,0.055,105.8
2019-06-08T07:32:32,42.805,6.029,0.043,-0.015,-0.008,100.0,102.0,96.0,13.4,1505.3,327.6,-0.8,1.8,2470.05,13.32,0.045,109.2
2019-06-08T07:35:33,42.805,6.029,0.051,-0.028,0.002,98.0,103.0,96.0,13.4,1505.3,324.0,-0.7,1.8,2470.052,13.32,0.058,118.8
2019-06-08T07:38:34,42.805,6.029,0.076,-0.01,0.032,99.0,102.0,96.0,13.4,1505.3,326.5,-0.7,1.9,2470.078,13.32,0.076,97.5
2019-06-08T07:41:35,42.805,6.029,0.041,0.004,0.003,99.0,101.0,96.0,13.4,1505.3,324.2,-0.8,1.8,2470.023,13.32,0.041,84.4
2019-06-08T07:44:36,42.805,6.029,0.051,-0.002,-0.006,99.0,102.0,96.0,13.4,1505.3,326.5,-0.7,1.8,2470.066,13.32,0.051,92.2
2019-06-08T07:47:37,42.805,6.029,0.025,-0.023,0.008,98.0,101.0,96.0,13.3,1505.3,324.2,-0.8,1.8,2470.059,13.32,0.033,132.6
2019-06-08T07:50:38,42.805,6.029,0.04,-0.009,-0.018,97.0,102.0,97.0,13.4,1505.3,324.6,-0.7,1.9,2470.077,13.32,0.041,102.7
2019-06-08T07:53:39,42.805,6.029,0.047,-0.014,0.0,98.0,101.0,96.0,13.4,1505.3,325.9,-0.7,1.9,2470.059,13.32,0.049,106.6
2019-06-08T07:56:40,42.805,6.029,0.04,-0.013,-0.007,99.0,101.0,96.0,13.4,1505.3,324.2,-0.7,1.8,2470.052,13.32,0.042,108.0
2019-06-08T07:59:41,42.805,6.029,0.052,-0.025,-0.001,100.0,103.0,96.0,13.4,1505.3,324.4,-0.8,1.8,2470.058,13.32,0.057,115.7
2019-06-08T08:02:42,42.805,6.029,0.042,-0.021,-0.011,99.0,102.0,97.0,13.4,1505.3,326.4,-0.8,1.8,2470.074,13.32,0.046,116.6
2019-06-08T08:05:43,42.805,6.029,0.059,-0.013,-0.02,98.0,102.0,96.0,13.4,1505.3,324.4,-0.7,1.8,2470.116,13.32,0.06,102.4
2019-06-08T08:08:44,42.805,6.029,0.054,-0.02,0.0,98.0,104.0,97.0,13.3,1505.3,326.1,-0.8,1.8,2470.103,13.32,0.057,110.3
2019-06-08T08:11:45,42.805,6.029,0.039,-0.024,-0.034,99.0,104.0,96.0,13.4,1505.3,327.1,-0.7,1.9,2470.116,13.32,0.045,121.6
2019-06-08T08:14:46,42.805,6.029,0.048,-0.01,-0.035,98.0,101.0,97.0,13.4,1505.3,325.3,-0.7,1.9,2470.089,13.32,0.049,101.8
2019-06-08T08:17:47,42.805,6.029,0.057,-0.032,-0.007,99.0,102.0,95.0,13.3,1505.3,326.2,-0.8,1.8,2470.094,13.32,0.065,119.3
2019-06-08T08:20:48,42.805,6.029,0.059,-0.032,-0.014,99.0,102.0,95.0,13.3,1505.3,323.9,-0.7,1.8,2470.101,13.32,0.067,118.5
2019-06-08T08:23:49,42.805,6.029,0.045,-0.009,-0.018,97.0,103.0,96.0,13.3,1505.3,324.9,-0.8,1.8,2470.14,13.32,0.045,101.3
2019-06-08T08:26:50,42.805,6.029,0.052,-0.013,-0.005,98.0,102.0,97.0,13.4,1505.3,324.7,-0.7,1.9,2470.11,13.32,0.053,104.0
2019-06-08T08:29:51,42.805,6.029,0.067,-0.008,-0.02,100.0,101.0,95.0,13.4,1505.3,324.3,-0.8,1.8,2470.079,13.32,0.067,96.8
2019-06-08T08:32:52,42.805,6.029,0.056,-0.011,-0.046,97.0,101.0,97.0,13.4,1505.3,326.6,-0.8,1.8,2470.074,13.32,0.057,101.1
2019-06-08T08:35:53,42.805,6.029,0.045,0.017,0.035,98.0,102.0,95.0,13.4,1505.3,326.5,-0.7,1.8,2470.119,13.32,0.048,69.3
2019-06-08T08:38:54,42.805,6.029,0.048,-0.025,-0.071,98.0,104.0,95.0,13.3,1505.3,326.0,-0.7,1.8,2470.099,13.32,0.054,117.5
2019-06-08T08:41:55,42.805,6.029,0.039,-0.007,-0.031,99.0,103.0,95.0,13.3,1505.3,325.8,-0.7,1.9,2470.099,13.32,0.039,100.2
2019-06-08T08:44:56,42.805,6.029,0.059,0.007,0.0,98.0,103.0,95.0,13.4,1505.3,325.1,-0.7,1.9,2470.109,13.32,0.059,83.2
2019-06-08T08:47:57,42.805,6.029,0.033,-0.022,-0.014,97.0,103.0,96.0,13.4,1505.3,326.6,-0.7,1.8,2470.118,13.32,0.039,123.7
2019-06-08T08:50:58,42.805,6.029,0.048,0.008,-0.027,99.0,105.0,95.0,13.3,1505.3,324.7,-0.8,1.8,2470.089,13.32,0.048,80.5
2019-06-08T08:53:59,42.805,6.029,0.059,-0.013,-0.033,97.0,106.0,95.0,13.4,1505.3,325.4,-0.8,1.8,2470.131,13.32,0.06,102.4
2019-06-08T08:57:00,42.805,6.029,0.026,0.006,-0.035,98.0,103.0,95.0,13.4,1505.3,328.0,-0.8,1.9,2470.105,13.32,0.026,77.0
2019-06-08T09:00:01,42.805,6.029,0.063,-0.011,-0.015,99.0,102.0,97.0,13.4,1505.3,326.8,-0.7,1.8,2470.083,13.32,0.063,99.9
2019-06-08T09:03:02,42.805,6.029,0.045,-0.009,-0.006,98.0,103.0,95.0,13.4,1505.3,326.0,-0.7,1.9,2470.099,13.32,0.045,101.3
2019-06-08T09:06:03,42.805,6.029,0.049,0.003,0.01,97.0,105.0,96.0,13.4,1505.3,325.3,-0.8,1.9,2470.108,13.32,0.049,86.5
2019-06-08T09:09:04,42.805,6.029,0.068,-0.021,0.003,98.0,103.0,96.0,13.4,1505.3,323.9,-0.8,1.9,2470.126,13.32,0.071,107.2
2019-06-08T09:12:05,42.805,6.029,0.06,-0.014,-0.006,99.0,102.0,96.0,13.4,1505.3,322.9,-0.7,1.9,2470.127,13.32,0.061,103.1
2019-06-08T09:15:06,42.805,6.029,0.052,0.007,-0.032,98.0,103.0,95.0,13.4,1505.3,324.2,-0.7,1.9,2470.134,13.32,0.052,82.3
2019-06-08T09:18:07,42.805,6.029,0.049,-0.026,-0.02,98.0,102.0,96.0,13.4,1505.3,326.8,-0.7,1.8,2470.157,13.32,0.055,117.9
2019-06-08T09:21:08,42.805,6.029,0.023,0.013,-0.01,98.0,104.0,96.0,13.4,1505.3,327.1,-0.7,1.9,2470.111,13.32,0.026,60.5
2019-06-08T09:24:09,42.805,6.029,0.046,-0.016,0.011,99.0,102.0,98.0,13.4,1505.3,324.3,-0.7,1.9,2470.093,13.32,0.048,109.2
2019-06-08T09:27:10,42.805,6.029,0.068,-0.017,-0.012,99.0,105.0,96.0,13.3,1505.3,326.0,-0.7,1.9,2470.136,13.32,0.07,104.0
2019-06-08T09:30:11,42.805,6.029,0.059,-0.016,-0.012,97.0,104.0,97.0,13.3,1505.3,324.1,-0.7,1.9,2470.103,13.32,0.061,105.2
2019-06-08T09:33:12,42.805,6.029,0.045,0.0,-0.023,99.0,104.0,95.0,13.4,1505.3,324.9,-0.8,1.9,2470.113,13.32,0.045,90.0
2019-06-08T09:36:13,42.805,6.029,0.062,-0.005,-0.01,99.0,103.0,95.0,13.4,1505.3,325.5,-0.7,1.8,2470.142,13.32,0.062,94.6
2019-06-08T09:39:14,42.805,6.029,0.057,0.0,-0.033,97.0,103.0,96.0,13.4,1505.3,325.8,-0.7,1.8,2470.096,13.32,0.057,90.0
2019-06-08T09:42:15,42.805,6.029,0.06,-0.004,-0.01,99.0,102.0,97.0,13.3,1505.3,326.9,-0.8,1.8,2470.142,13.32,0.06,93.8
2019-06-08T09:45:16,42.805,6.029,0.044,0.013,-0.038,98.0,102.0,94.0,13.4,1505.3,323.6,-0.7,1.9,2470.139,13.32,0.045,73.5